Location: Newark
(44.2003°N, 3.2583°E)
Time: 01:53:55
(UTC+00:00)

SR - All Passes

Search period start: 22 October 2019 00:00
Search period end: 01 November 2019 00:00
Orbit: 574 x 881 km, 66.7° (Epoch: 21 October)

Date Brightness Start Highest point End Pass type
(mag) Time Alt. Az. Time Alt. Az. Time Alt. Az.
22 Oct - 00:17:46 10° NW 00:19:03 11° NNW 00:20:22 10° N visible
22 Oct - 03:46:27 10° N 03:49:11 13° NNE 03:51:57 10° ENE visible
22 Oct - 05:27:09 10° NNW 05:32:49 46° NE 05:38:29 10° ESE visible
22 Oct - 07:09:32 10° NW 07:14:51 35° WSW 07:20:05 10° S daylight
22 Oct - 20:00:27 10° SSE 20:03:51 19° ESE 20:07:27 10° ENE night (unlit)
22 Oct - 21:40:19 10° SW 21:45:17 65° NW 21:50:47 10° NNE night (unlit)
22 Oct - 23:25:26 10° WNW 23:28:36 16° NNW 23:31:54 10° N night (unlit)
23 Oct - 04:37:46 10° NNW 04:42:49 28° NE 04:47:52 10° ESE visible
23 Oct - 06:19:31 10° NW 06:25:23 64° WSW 06:31:11 10° SSE daylight
23 Oct - 20:50:42 10° SSW 20:55:38 68° ESE 21:01:05 10° NE night (unlit)
23 Oct - 22:34:09 10° W 22:38:19 24° NW 22:42:46 10° NNE night (unlit)
24 Oct - 03:48:32 10° N 03:52:37 19° NE 03:56:42 10° E visible
24 Oct - 05:29:48 10° NNW 05:35:44 74° NE 05:41:38 10° SE visible
24 Oct - 07:13:07 10° WNW 07:17:16 20° WSW 07:21:22 10° SSW daylight
24 Oct - 20:01:43 10° S 20:06:12 35° ESE 20:11:04 10° NE night (unlit)
24 Oct - 21:43:28 10° WSW 21:48:14 38° NW 21:53:25 10° NNE night (unlit)
24 Oct - 23:30:27 10° NW 23:32:04 11° NNW 23:33:43 10° N night (unlit)
25 Oct - 02:59:37 10° N 03:02:13 13° NNE 03:04:50 10° NE visible
25 Oct - 04:40:16 10° NNW 04:45:55 44° NE 04:51:31 10° ESE visible
25 Oct - 06:22:35 10° NW 06:27:59 37° WSW 06:33:16 10° S daylight
25 Oct - 19:13:42 10° SE 19:16:59 18° ESE 19:20:26 10° ENE night (unlit)
25 Oct - 20:53:20 10° SW 20:58:22 68° NW 21:03:54 10° NNE night (unlit)
25 Oct - 22:38:18 10° WNW 22:41:37 16° NNW 22:45:04 10° N night (unlit)
26 Oct - 03:50:53 10° NNW 03:55:52 27° NE 04:00:52 10° E visible
26 Oct - 05:32:36 10° NW 05:38:30 67° WSW 05:44:18 10° SSE visible
26 Oct - 07:18:40 10° W 07:19:32 10° W 07:20:24 10° WSW daylight
26 Oct - 20:03:47 10° SSW 20:08:44 64° ESE 20:14:11 10° NE night (unlit)
26 Oct - 21:47:05 10° W 21:51:22 25° NW 21:55:56 10° NNE night (unlit)
27 Oct - 03:01:41 10° N 03:05:39 18° NE 03:09:38 10° ENE visible
27 Oct - 04:42:53 10° NNW 04:48:50 71° NE 04:54:41 10° SE visible
27 Oct - 06:26:06 10° WNW 06:30:24 21° WSW 06:34:39 10° SSW daylight
27 Oct - 19:14:52 10° S 19:19:19 33° ESE 19:24:08 10° NE night (unlit)
27 Oct - 20:56:27 10° WSW 21:01:18 40° NW 21:06:34 10° NNE night (unlit)
27 Oct - 22:43:10 10° NW 22:45:05 12° NNW 22:47:01 10° N night (unlit)
28 Oct - 02:12:47 10° N 02:15:14 13° NNE 02:17:42 10° NE visible
28 Oct - 03:53:23 10° NNW 03:58:59 42° NE 04:04:33 10° ESE visible
28 Oct - 05:35:39 10° NW 05:41:06 39° WSW 05:46:27 10° S visible
28 Oct - 18:26:57 10° SE 18:30:07 17° ESE 18:33:25 10° ENE visible
28 Oct - 20:06:23 10° SW 20:11:27 72° WNW 20:17:01 10° NNE visible
28 Oct - 21:51:11 10° WNW 21:54:38 17° NW 21:58:16 10° N night (unlit)
29 Oct - 03:04:00 10° NNW 03:08:56 26° NE 03:13:51 10° E visible
29 Oct - 04:45:42 10° NW 04:51:37 71° WSW 04:57:25 10° SSE visible
29 Oct - 06:31:06 10° W 06:32:41 11° W 06:34:16 10° WSW daylight
29 Oct - 19:16:52 10° SSW 19:21:49 61° ESE 19:27:16 10° NE visible
29 Oct - 21:00:01 10° W 21:04:24 26° NW 21:09:04 10° NNE night (unlit)
30 Oct - 02:14:49 10° N 02:18:41 18° NE 02:22:34 10° ENE visible
30 Oct - 03:55:59 10° NNW 04:01:56 67° NE 04:07:46 10° SE visible
30 Oct - 05:39:06 10° WNW 05:43:32 22° WSW 05:47:54 10° SSW visible
30 Oct - 18:28:01 10° S 18:32:26 31° ESE 18:37:11 10° NE visible
30 Oct - 20:09:27 10° WSW 20:14:21 42° NW 20:19:42 10° NNE visible
30 Oct - 21:55:56 10° NW 21:58:05 12° NNW 22:00:17 10° N night (unlit)
31 Oct - 01:25:58 10° N 01:28:15 12° NNE 01:30:33 10° NE visible
31 Oct - 03:06:29 10° NNW 03:12:03 40° NE 03:17:34 10° ESE visible
31 Oct - 04:48:42 10° NW 04:54:13 41° WSW 04:59:38 10° S visible
31 Oct - 17:40:14 10° SE 17:43:14 16° ESE 17:46:22 10° ENE visible
31 Oct - 19:19:25 10° SW 19:24:31 76° WNW 19:30:08 10° NNE visible
31 Oct - 21:04:04 10° WNW 21:07:40 18° NW 21:11:26 10° N visible
